• In Belarus
  • List of Countries
  • For 7 days
  • Water Temperature
  • Satellite Maps
  • Weather Map
  • Weather Widgets
  • user-avatar
    Login

    Hourly Weather Porokhnya

    Today, 21 April, Sunday

    Time Temperature Precipitation Wind Pressure Humidity
    00:00 +5°C° 0 mm 4 mps 761 mmHg 53%
    01:00 +5°C° 0 mm 4 mps 761 mmHg 54%
    02:00 +4°C° 0 mm 4 mps 761 mmHg 54%
    03:00 +4°C° 0 mm 4 mps 761 mmHg 55%
    04:00 +3°C° 0 mm 4 mps 761 mmHg 56%
    05:00 +3°C° 0 mm 4 mps 761 mmHg 56%
    06:00 +3°C° 0 mm 4 mps 761 mmHg 57%
    07:00 +5°C° 0 mm 4 mps 761 mmHg 52%
    08:00 +7°C° 0 mm 5 mps 761 mmHg 48%
    09:00 +9°C° 0 mm 5 mps 761 mmHg 43%
    10:00 +10°C° 0 mm 6 mps 761 mmHg 40%
    11:00 +11°C° 0 mm 6 mps 761 mmHg 36%
    12:00 +13°C° 0 mm 6 mps 761 mmHg 33%
    13:00 +13°C° 0 mm 6 mps 761 mmHg 33%
    14:00 +14°C° 0 mm 6 mps 761 mmHg 33%
    15:00 +14°C° 0 mm 5 mps 761 mmHg 33%
    16:00 +14°C° 0 mm 5 mps 761 mmHg 36%
    17:00 +13°C° 0 mm 5 mps 761 mmHg 38%
    18:00 +13°C° 0 mm 4 mps 761 mmHg 41%
    19:00 +12°C° 0 mm 4 mps 761 mmHg 44%
    20:00 +10°C° 0 mm 4 mps 761 mmHg 47%
    21:00 +8°C° 0 mm 4 mps 761 mmHg 50%
    22:00 +8°C° 0 mm 4 mps 761 mmHg 51%
    23:00 +7°C° 0 mm 4 mps 761 mmHg 52%

    Tomorrow, 22 April, Monday

    Time Temperature Precipitation Wind Pressure Humidity
    00:00 +7°C° 0 mm 4 mps 761 mmHg 52%
    01:00 +6°C° 0 mm 4 mps 761 mmHg 53%
    02:00 +6°C° 0 mm 4 mps 762 mmHg 54%
    03:00 +5°C° 0 mm 4 mps 762 mmHg 55%
    04:00 +5°C° 0 mm 4 mps 762 mmHg 56%
    05:00 +5°C° 0 mm 4 mps 762 mmHg 57%
    06:00 +5°C° 0 mm 5 mps 762 mmHg 58%
    07:00 +6°C° 0 mm 5 mps 762 mmHg 54%
    08:00 +8°C° 0 mm 5 mps 762 mmHg 50%
    09:00 +10°C° 0 mm 6 mps 762 mmHg 46%
    10:00 +11°C° 0 mm 6 mps 762 mmHg 42%
    11:00 +14°C° 0 mm 6 mps 762 mmHg 38%
    12:00 +15°C° 0 mm 6 mps 762 mmHg 35%
    13:00 +15°C° 0 mm 6 mps 762 mmHg 34%
    14:00 +15°C° 0 mm 5 mps 762 mmHg 34%
    15:00 +16°C° 0 mm 5 mps 762 mmHg 34%
    16:00 +15°C° 0 mm 5 mps 762 mmHg 36%
    17:00 +15°C° 0 mm 4 mps 762 mmHg 39%
    18:00 +15°C° 0 mm 4 mps 762 mmHg 41%
    19:00 +13°C° 0 mm 4 mps 762 mmHg 44%
    20:00 +12°C° 0 mm 3 mps 763 mmHg 48%
    21:00 +10°C° 0 mm 3 mps 763 mmHg 51%
    22:00 +10°C° 0 mm 3 mps 763 mmHg 52%
    23:00 +10°C° 0 mm 3 mps 763 mmHg 53%

    Day after tomorrow, 23 April, Tuesday

    Time Temperature Precipitation Wind Pressure Humidity
    00:00 +9°C° 0 mm 3 mps 763 mmHg 54%
    01:00 +9°C° 0 mm 3 mps 763 mmHg 55%
    02:00 +8°C° 0 mm 3 mps 763 mmHg 56%
    03:00 +8°C° 0 mm 3 mps 764 mmHg 58%
    04:00 +7°C° 0 mm 3 mps 764 mmHg 58%
    05:00 +7°C° 0 mm 3 mps 764 mmHg 59%
    06:00 +7°C° 0 mm 3 mps 764 mmHg 59%
    07:00 +9°C° 0 mm 3 mps 764 mmHg 54%
    08:00 +11°C° 0 mm 3 mps 765 mmHg 49%
    09:00 +13°C° 0 mm 3 mps 765 mmHg 44%
    10:00 +14°C° 0 mm 3 mps 765 mmHg 40%
    11:00 +16°C° 0 mm 3 mps 765 mmHg 37%
    12:00 +17°C° 0 mm 3 mps 765 mmHg 33%
    13:00 +16°C° 0 mm 2 mps 765 mmHg 34%
    14:00 +16°C° 0 mm 2 mps 765 mmHg 35%
    15:00 +16°C° 0 mm 1 mps 765 mmHg 37%
    16:00 +16°C° 0 mm 1 mps 765 mmHg 40%
    17:00 +16°C° 0 mm 1 mps 765 mmHg 44%
    18:00 +16°C° 0 mm 1 mps 765 mmHg 47%
    19:00 +15°C° 0 mm 1 mps 765 mmHg 50%
    20:00 +14°C° 0 mm 1 mps 765 mmHg 52%
    21:00 +12°C° 0 mm 1 mps 766 mmHg 54%
    22:00 +12°C° 0 mm 1 mps 766 mmHg 54%
    23:00 +12°C° 0 mm 1 mps 766 mmHg 53%

    24 April, Wednesday

    Time Temperature Precipitation Wind Pressure Humidity
    00:00 +12°C° 0 mm 1 mps 766 mmHg 53%
    01:00 +12°C° 0 mm 1 mps 766 mmHg 54%
    02:00 +11°C° 0 mm 1 mps 766 mmHg 55%
    03:00 +10°C° 0 mm 1 mps 766 mmHg 56%
    04:00 +9°C° 0 mm 2 mps 766 mmHg 58%
    05:00 +9°C° 0 mm 2 mps 766 mmHg 60%
    06:00 +8°C° 0 mm 2 mps 766 mmHg 62%
    07:00 +10°C° 0 mm 2 mps 766 mmHg 58%
    08:00 +13°C° 0 mm 2 mps 766 mmHg 53%
    09:00 +15°C° 0 mm 2 mps 766 mmHg 48%
    10:00 +16°C° 0 mm 2 mps 766 mmHg 45%
    11:00 +17°C° 0 mm 2 mps 765 mmHg 41%
    12:00 +18°C° 0 mm 2 mps 765 mmHg 37%
    13:00 +18°C° 0 mm 2 mps 765 mmHg 37%
    14:00 +19°C° 0 mm 2 mps 765 mmHg 37%
    15:00 +19°C° 0 mm 2 mps 764 mmHg 37%
    16:00 +19°C° 0 mm 2 mps 764 mmHg 40%
    17:00 +18°C° 0 mm 3 mps 764 mmHg 42%
    18:00 +18°C° 0 mm 3 mps 764 mmHg 45%
    19:00 +17°C° 0 mm 3 mps 764 mmHg 47%
    20:00 +16°C° 0 mm 3 mps 764 mmHg 50%
    21:00 +14°C° 0 mm 3 mps 764 mmHg 52%
    22:00 +14°C° 0 mm 3 mps 764 mmHg 53%
    23:00 +14°C° 0 mm 3 mps 764 mmHg 55%

    25 April, Thursday

    Time Temperature Precipitation Wind Pressure Humidity
    00:00 +14°C° 0 mm 3 mps 764 mmHg 57%
    01:00 +13°C° 0 mm 3 mps 764 mmHg 60%
    02:00 +13°C° 0 mm 3 mps 764 mmHg 64%
    03:00 +12°C° 0 mm 3 mps 764 mmHg 67%
    04:00 +12°C° 0 mm 3 mps 764 mmHg 68%
    05:00 +12°C° 0 mm 3 mps 764 mmHg 70%
    06:00 +12°C° 0 mm 3 mps 764 mmHg 71%
    07:00 +14°C° 0 mm 3 mps 764 mmHg 66%
    08:00 +17°C° 0 mm 3 mps 764 mmHg 61%
    09:00 +19°C° 0 mm 2 mps 765 mmHg 56%
    10:00 +20°C° 0 mm 2 mps 764 mmHg 52%
    11:00 +20°C° 0 mm 2 mps 764 mmHg 48%
    12:00 +21°C° 0 mm 2 mps 764 mmHg 45%
    13:00 +23°C° 0 mm 1 mps 764 mmHg 44%
    14:00 +23°C° 0 mm 1 mps 764 mmHg 44%
    15:00 +23°C° 0 mm 1 mps 763 mmHg 44%
    16:00 +21°C° 0 mm 0 mps 763 mmHg 45%
    17:00 +20°C° 0 mm 0 mps 763 mmHg 46%
    18:00 +20°C° 0 mm 0 mps 763 mmHg 48%
    19:00 +19°C° 0 mm 0 mps 763 mmHg 50%
    20:00 +20°C° 0 mm 1 mps 763 mmHg 53%
    21:00 +19°C° 0 mm 1 mps 763 mmHg 56%
    22:00 +18°C° 0 mm 1 mps 763 mmHg 58%
    23:00 +16°C° 0 mm 1 mps 763 mmHg 61%

    26 April, Friday

    Time Temperature Precipitation Wind Pressure Humidity
    00:00 +16°C° 0 mm 1 mps 763 mmHg 63%
    01:00 +15°C° 0 mm 1 mps 763 mmHg 64%
    02:00 +15°C° 0 mm 1 mps 762 mmHg 64%
    03:00 +15°C° 0 mm 1 mps 762 mmHg 65%
    04:00 +14°C° 0 mm 1 mps 762 mmHg 66%
    05:00 +14°C° 0 mm 1 mps 762 mmHg 66%
    06:00 +14°C° 0 mm 1 mps 762 mmHg 67%
    07:00 +16°C° 0 mm 1 mps 762 mmHg 62%
    08:00 +19°C° 0 mm 1 mps 762 mmHg 57%
    09:00 +20°C° 0 mm 1 mps 762 mmHg 52%
    10:00 +21°C° 0 mm 1 mps 762 mmHg 48%
    11:00 +22°C° 0 mm 1 mps 762 mmHg 43%
    12:00 +23°C° 0 mm 2 mps 762 mmHg 39%
    13:00 +23°C° 0 mm 2 mps 761 mmHg 38%
    14:00 +23°C° 0 mm 2 mps 761 mmHg 37%
    15:00 +23°C° 0 mm 2 mps 761 mmHg 37%
    16:00 +23°C° 0 mm 2 mps 761 mmHg 39%
    17:00 +23°C° 0 mm 2 mps 760 mmHg 41%
    18:00 +22°C° 0 mm 1 mps 760 mmHg 44%
    19:00 +21°C° 0 mm 1 mps 760 mmHg 47%
    20:00 +19°C° 0 mm 1 mps 760 mmHg 51%
    21:00 +18°C° 0 mm 1 mps 760 mmHg 55%
    22:00 +16°C° 0 mm 1 mps 760 mmHg 56%
    23:00 +16°C° 0 mm 1 mps 759 mmHg 58%
    Show more